CAPE
2 3 2 2 1 2 3 3 3 3 3 2 4 4 2 3 4 4 2 1 4 5 5 4 5 4 3 3 1 3 3 0 0 0 0 0 0 0 0 0 0 0 44 0 0 0 0 165 223 146 0 0 0 11 999 853 818 643 728 623 352 588 148 779 528 656 984 476 185 153 189 206 142 190 173 193 224 284 248 329 336 384 466 612 705 941 1071 1109
3 3 2 2 2 4 4 3 3 3 3 4 3 4 4 4 3 3 1 1 4 5 4 2 3 2 1 0 1 3 1 0 0 0 0 0 0 0 0 1 0 0 0 0 0 0 0 122 248 186 68 0 0 309 727 899 924 735 757 732 451 480 706 1001 1098 1422 876 492 200 145 268 246 230 213 173 279 246 240 236 342 518 617 719 845 893 982 1018 1070
3 4 3 3 3 3 4 4 4 4 5 4 4 5 4 5 4 5 4 3 3 2 1 0 0 1 0 1 2 4 0 0 0 0 0 0 0 0 0 192 1 1 0 0 0 0 103 154 279 218 282 0 0 182 560 701 756 884 574 867 660 623 825 1175 1153 1809 2341 538 204 118 162 291 223 270 91 297 192 202 265 335 411 536 510 701 928 944 958 1022
4 5 5 4 4 3 4 4 3 1 3 3 2 3 3 3 3 2 2 2 0 1 1 2 0 1 1 1 1 1 0 0 0 0 0 2 0 0 63 14 0 0 0 0 0 0 67 195 376 297 241 1 96 188 41 666 653 1018 652 728 720 593 637 881 1295 1542 1732 1037 156 140 169 231 140 130 222 235 181 265 537 239 351 620 599 626 840 924 975 943
4 4 5 4 4 4 3 4 2 1 1 1 1 1 2 2 2 2 1 0 1 2 2 2 1 0 1 4 0 0 0 0 0 0 62 439 0 0 20 2 0 0 0 0 0 0 52 224 243 284 301 236 26 189 36 705 1082 933 721 998 924 404 703 1373 991 1690 1533 604 202 170 118 162 240 101 308 201 181 163 256 267 372 656 710 735 802 879 936 935
4 4 4 4 4 3 3 3 4 4 2 2 3 2 2 2 2 1 1 2 4 2 1 1 1 0 1 0 0 0 0 0 0 0 880 32 1 19 2 240 98 0 0 0 0 0 0 215 187 0 141 20 1 0 430 417 1116 603 916 925 1011 768 956 1216 1200 1538 833 428 236 145 343 247 119 194 275 161 126 114 276 234 474 716 832 752 774 850 868 891
3 4 4 3 2 3 3 3 4 2 2 1 2 2 2 2 2 2 1 1 1 2 1 2 1 0 1 0 1 0 0 0 0 0 1043 41 26 14 140 49 0 0 0 0 0 0 0 51 0 0 42 44 0 0 557 722 732 365 599 855 930 920 769 824 1142 1509 729 728 752 1000 430 224 133 156 115 81 50 243 238 330 573 757 954 1027 1051 951 888 921
3 3 3 2 3 3 3 3 2 2 1 1 2 2 2 1 2 2 2 2 1 1 1 1 0 0 1 0 0 0 0 0 0 642 476 4 92 471 0 0 0 0 0 0 0 0 0 0 0 0 0 0 17 0 631 631 605 607 525 660 631 548 787 600 979 738 910 640 650 600 365 477 275 177 63 77 184 194 290 445 548 673 823 881 982 1018 1013 1070
2 2 2 3 4 3 2 3 2 2 2 1 2 2 2 3 2 2 2 2 2 1 0 1 0 1 2 0 0 0 0 0 0 0 14 14 14 0 0 0 0 0 0 0 0 0 0 0 0 0 0 39 20 42 634 471 689 737 767 536 500 398 629 748 936 730 830 887 1039 562 530 623 416 49 127 67 230 321 368 493 567 640 722 806 858 921 946 958
3 3 3 4 2 2 2 3 2 3 3 2 2 2 3 2 2 2 3 2 1 1 0 1 0 1 0 0 0 0 0 0 0 0 0 0 0 0 0 0 0 0 0 0 0 0 0 0 0 0 0 0 76 558 775 467 1018 684 560 563 569 508 565 843 938 601 613 989 1038 545 533 559 204 215 72 122 222 288 370 474 561 587 651 662 732 773 788 773
2 1 2 2 2 2 4 3 4 2 3 3 2 3 2 3 2 2 2 3 2 0 0 2 1 0 0 0 0 0 0 0 0 0 0 0 0 0 0 0 0 0 0 0 0 0 0 0 0 0 0 63 915 1054 1004 818 736 686 512 517 390 404 568 781 347 522 851 768 979 376 328 575 404 100 123 101 232 288 408 425 498 547 588 581 646 705 699 682
1 2 2 2 2 3 2 3 3 3 2 2 3 2 2 2 2 2 2 2 2 0 0 1 1 1 0 0 0 0 0 0 0 0 0 0 0 0 0 0 0 0 0 0 0 0 0 0 0 0 0 235 300 973 813 764 632 552 592 451 324 358 453 567 454 597 531 421 789 869 227 279 160 175 91 126 232 363 443 408 423 469 496 527 547 601 623 598
2 1 1 1 1 1 2 1 1 1 2 2 2 2 2 3 3 2 3 3 0 0 0 1 2 0 0 0 0 0 0 0 0 0 0 0 0 0 0 0 0 0 0 0 0 0 0 0 0 0 0 182 921 1293 986 760 723 765 541 363 359 347 367 389 511 758 479 630 898 1483 170 338 253 210 88 202 235 309 433 414 364 394 408 429 465 501 538 526
2 2 2 0 1 1 1 1 1 1 2 1 1 2 2 1 2 3 1 1 0 0 0 0 0 0 0 0 0 0 0 0 0 0 0 0 0 0 0 0 0 0 0 0 0 0 0 0 0 0 0 916 1064 729 734 612 685 738 473 682 365 321 266 290 581 601 556 455 799 1402 475 364 427 125 131 233 220 266 308 344 338 328 331 378 393 441 478 474
2 1 1 0 0 1 1 1 1 1 1 1 2 2 2 1 1 1 1 0 0 0 0 0 1 0 0 0 0 0 0 0 0 0 0 0 0 0 0 0 0 0 0 0 0 0 0 0 0 0 482 1014 1057 1031 948 1027 821 666 537 485 421 519 344 519 706 470 457 385 855 896 519 344 191 136 112 246 208 225 272 320 330 292 292 323 364 389 414 442
2 1 2 1 0 0 0 1 2 2 1 1 1 1 0 0 0 0 0 0 1 0 0 0 0 0 0 0 0 0 0 0 0 0 0 0 0 0 0 0 0 0 0 0 0 0 0 0 0 483 971 1120 1328 1197 923 809 756 366 477 410 407 532 435 443 429 721 757 696 493 1034 852 181 125 139 114 196 242 210 244 267 300 294 266 279 311 345 357 388
2 2 2 1 0 0 0 2 3 1 1 1 0 0 0 0 0 0 0 0 0 0 0 0 0 0 0 0 0 0 0 0 0 0 0 0 0 0 0 0 0 0 0 0 0 0 0 0 134 1112 1325 1383 1395 1059 770 776 704 609 471 386 430 502 427 693 574 597 618 680 696 859 536 404 286 124 111 167 253 211 181 221 263 307 262 274 287 279 308 362
2 3 2 1 0 0 0 0 2 0 1 0 0 0 0 0 1 0 1 1 0 0 0 0 0 0 0 0 0 0 0 0 0 0 0 0 0 0 0 0 0 0 0 0 0 0 0 20 575 1175 1132 1326 1224 981 581 399 339 787 659 499 655 544 581 698 536 622 534 736 886 473 540 518 280 86 82 132 243 212 169 171 199 229 241 243 227 249 258 300
2 2 2 1 0 0 0 0 1 1 1 0 1 0 0 0 0 0 0 0 0 0 0 0 0 0 0 0 0 0 0 0 0 0 0 0 0 0 0 0 0 0 0 0 0 0 0 406 924 1034 777 1090 1129 968 560 337 288 561 881 812 710 700 578 654 720 897 643 800 760 501 719 641 199 71 61 93 180 188 175 141 149 194 199 214 195 179 204 239
2 2 1 1 0 0 0 0 0 0 1 0 0 0 0 0 0 0 0 0 0 0 0 0 0 0 0 0 0 0 0 0 0 0 0 0 0 0 0 0 0 0 0 0 0 0 0 114 369 743 741 1060 1166 737 554 580 524 654 726 895 676 556 744 908 948 932 1058 763 795 656 690 544 172 78 61 66 117 147 141 125 128 164 167 150 118 121 157 180
2 2 1 1 0 0 0 0 0 1 1 0 0 0 0 0 0 0 0 0 0 0 0 0 0 0 0 0 0 0 0 0 0 0 0 0 0 0 0 0 0 0 0 0 0 0 0 5 165 665 901 1184 1076 603 541 685 694 724 879 854 697 683 738 906 1060 866 1035 1354 723 794 655 538 337 93 49 66 84 108 103 105 107 116 139 123 108 94 113 145
2 1 1 0 0 0 0 0 0 1 1 0 0 0 0 0 0 0 0 0 0 0 0 0 0 0 0 0 0 0 0 0 0 0 0 0 0 0 0 0 0 0 0 0 0 0 0 0 0 14 384 1024 1247 789 385 596 687 713 633 916 834 863 1024 1009 1083 1026 924 890 1043 823 529 596 328 169 320 81 70 94 75 91 106 118 117 128 97 91 100 85
2 2 0 1 0 0 0 0 0 0 0 0 0 0 0 0 0 0 0 0 0 0 0 0 0 0 0 0 0 0 0 0 0 0 0 0 0 0 0 0 0 0 0 0 0 0 0 0 0 0 0 692 1040 946 649 408 520 635 720 629 685 977 690 792 1110 1017 810 1048 865 829 580 657 558 455 305 334 152 111 102 78 99 94 108 102 79 78 80 60
2 1 1 1 0 0 0 0 0 0 0 0 0 0 0 0 0 0 0 0 0 0 0 0 0 0 0 0 0 0 0 0 0 0 0 0 0 0 0 0 0 0 0 0 0 0 0 0 0 0 0 8 340 664 744 382 210 312 568 518 452 839 645 594 942 882 792 804 1030 662 635 444 501 306 181 406 867 629 378 205 148 82 85 90 45 48 48 34
3 1 0 2 0 0 0 0 0 0 0 0 0 0 0 0 0 0 0 0 0 0 0 0 0 0 0 0 0 0 0 0 0 0 0 0 0 0 0 0 0 0 0 0 0 0 0 0 0 0 0 0 40 157 252 273 11 247 191 510 487 792 790 867 753 853 712 709 948 576 265 266 543 371 283 265 541 642 821 388 168 147 97 57 36 31 28 23
1 2 2 0 1 0 0 0 0 0 0 0 0 0 0 0 0 0 0 0 0 0 0 0 0 0 0 0 0 0 0 0 0 0 0 0 0 0 0 0 0 0 0 0 0 0 0 0 0 0 0 0 12 130 146 64 8 16 43 72 260 593 868 794 685 710 652 408 688 760 203 276 661 448 367 305 285 281 659 573 270 222 302 198 56 30 24 14
2 2 2 2 0 0 0 0 0 0 0 0 0 0 0 0 0 0 0 0 0 0 0 0 0 0 0 0 0 0 0 0 0 0 0 0 0 0 0 0 0 0 0 0 0 0 0 0 0 0 0 0 0 77 41 16 20 94 1 10 335 707 789 652 816 596 657 562 533 689 454 237 228 386 448 390 320 342 121 415 444 403 452 216 170 28 36 15
2 2 2 2 0 0 0 0 0 0 0 0 0 0 0 0 0 0 0 0 0 0 0 0 0 0 0 0 0 0 0 0 0 0 0 0 0 0 0 0 0 0 0 0 0 0 0 0 0 0 0 0 0 6 42 7 11 2 361 396 725 842 803 725 798 738 612 433 380 646 506 244 152 249 440 440 322 304 8 318 429 500 564 462 361 79 26 23
2 2 1 1 0 0 0 0 0 0 0 0 0 0 0 0 0 0 0 0 0 0 0 0 0 0 0 0 0 0 0 0 0 0 0 0 0 0 0 0 0 0 0 0 0 0 0 0 0 0 0 0 0 8 65 48 62 955 728 628 624 655 616 589 756 678 532 343 340 379 603 312 250 572 564 506 403 361 290 210 302 354 600 706 564 200 46 30
2 1 1 1 0 0 0 0 0 0 0 0 0 0 0 0 0 0 0 0 0 0 0 0 0 0 0 0 0 0 0 0 0 0 0 0 0 0 0 0 0 0 0 0 0 0 0 0 0 0 0 0 0 5 44 119 20 618 688 661 676 747 665 603 539 383 303 308 287 562 483 333 322 586 695 561 523 480 426 356 347 394 508 774 771 396 95 46
2 1 1 2 0 0 0 0 0 0 0 0 0 0 0 0 0 0 0 0 0 0 0 0 0 0 0 0 0 0 0 0 0 0 0 0 0 0 0 0 0 0 0 0 0 0 0 0 0 0 0 1 13 7 9 56 608 715 842 879 693 722 520 476 314 234 321 311 385 461 577 425 200 274 647 654 700 384 456 479 424 505 544 797 856 534 182 50
0 0 0 1 0 0 0 0 0 0 0 0 0 0 0 0 0 0 0 0 0 0 0 0 0 0 0 0 0 0 0 0 0 0 0 0 0 0 0 0 0 0 0 0 0 0 0 0 0 0 0 0 94 12 265 702 942 548 925 453 121 592 543 268 391 237 280 326 582 340 569 572 279 266 383 198 29 78 352 323 358 390 500 723 842 655 327 81
0 0 0 0 0 0 0 0 0 0 0 0 0 0 0 0 0 0 0 0 0 0 0 0 0 0 0 0 0 0 0 0 0 0 0 0 0 0 0 0 0 0 0 0 0 0 0 0 0 0 0 257 151 156 379 826 875 775 523 384 2 344 343 346 307 254 248 180 276 416 615 475 516 387 508 614 745 593 395 213 217 265 326 567 802 747 505 168
0 0 0 0 0 0 0 0 0 0 0 0 0 0 0 0 0 900 0 0 0 0 0 0 0 0 0 0 0 0 0 0 0 0 0 0 0 0 0 0 0 0 0 0 0 0 0 0 0 0 0 88 210 339 348 249 1004 717 405 125 30 13 259 422 507 358 332 647 603 604 382 474 389 502 668 714 958 911 722 289 99 250 371 427 616 726 597 293
0 0 0 0 0 0 0 0 0 0 0 0 0 0 0 0 0 0 0 0 0 0 0 0 0 0 0 0 0 0 0 0 0 0 0 0 0 0 0 0 0 7 0 0 0 0 0 0 0 0 0 80 161 668 629 689 965 840 455 339 246 76 438 154 489 501 641 586 493 511 496 487 433 430 791 975 1052 1073 806 289 1 22 333 349 466 587 627 391
0 0 0 0 0 0 0 0 0 0 0 0 0 0 0 0 0 0 0 0 0 0 0 0 0 0 0 0 0 0 0 0 0 0 0 0 0 0 0 0 0 10 23 10 10 25 44 20 0 0 0 18 83 799 1103 643 534 544 159 130 292 316 290 589 575 406 656 311 629 687 539 494 450 194 280 930 975 992 924 840 291 170 7 365 473 558 614 463
0 0 0 0 0 0 0 0 0 0 0 0 0 0 0 0 0 0 92 0 0 0 0 0 0 0 0 0 0 0 0 0 0 0 0 0 0 0 0 0 5 8 28 28 23 32 26 20 0 0 0 0 0 600 1094 498 675 502 342 422 316 230 228 181 451 646 499 202 411 513 494 606 362 409 754 992 818 901 936 939 690 242 254 313 460 664 653 562
0 0 0 0 0 0 0 0 0 0 0 0 0 0 24 0 0 0 0 0 0 0 0 0 0 0 0 0 0 0 0 0 0 0 0 0 0 0 0 0 12 20 25 30 29 22 3 54 0 0 0 0 0 774 686 323 392 411 340 606 106 334 185 93 684 299 314 268 264 312 465 487 452 666 720 822 744 853 945 782 1019 461 253 200 360 627 733 648
0 0 0 0 0 0 0 0 0 0 0 0 0 0 0 0 0 0 0 0 0 0 0 0 0 0 0 0 0 0 0 0 0 0 0 0 0 0 0 0 8 16 30 34 13 32 8 35 22 0 0 183 752 908 828 316 447 470 410 475 24 54 329 162 337 270 214 233 116 123 128 454 744 817 685 720 721 927 949 957 1074 917 448 283 328 470 726 678
0 0 0 0 0 0 0 0 0 0 0 0 0 0 0 0 0 0 0 0 0 0 0 0 0 0 0 0 0 0 0 0 0 0 0 0 0 0 0 0 0 6 0 25 26 17 20 0 202 22 0 6 324 507 844 435 351 131 199 294 317 8 0 0 2 144 119 197 284 41 68 657 698 699 829 806 1045 1116 967 1037 1092 1027 767 523 354 368 571 647
0 0 0 0 0 0 0 0 0 0 0 0 0 0 0 0 0 0 0 0 0 0 0 0 0 0 0 0 0 0 0 0 0 0 0 0 0 0 0 0 0 0 4 14 5 15 102 54 37 51 73 94 10 70 352 363 281 31 54 97 294 158 12 1 16 0 0 21 77 38 33 686 907 735 829 1069 1310 1167 1029 977 1049 882 822 640 578 424 576 745
0 0 0 0 0 0 0 0 0 0 0 0 0 0 0 8 0 0 0 0 0 0 0 0 0 0 0 0 0 0 0 0 0 0 0 0 0 0 0 0 0 0 0 6 22 32 13 27 177 76 24 95 75 15 222 268 371 682 752 504 36 233 89 4 2 4 1 0 57 144 216 898 630 876 1013 1109 1261 1176 1081 1044 1239 1309 1102 1019 1049 648 670 807
0 0 0 0 0 0 0 0 17 2 0 0 0 0 0 0 0 0 0 0 0 0 0 0 0 0 0 0 0 0 0 0 0 0 0 0 0 0 0 0 0 0 0 0 0 34 1190 358 352 150 248 25 140 168 25 32 62 234 734 889 778 654 230 10 2 3 0 206 76 130 28 520 730 979 1078 1227 1388 1166 1166 1228 1091 1010 982 1252 1574 1786 1465 1102
0 0 0 0 0 0 0 0 0 0 0 0 0 0 0 0 0 0 0 0 0 0 0 0 0 0 0 0 0 0 0 0 0 0 0 0 0 0 0 0 0 1 0 0 61 150 377 234 397 82 198 43 136 192 174 105 538 592 747 926 860 815 538 360 17 3 30 93 241 33 5 1188 936 1120 1162 1245 1382 1244 1262 1226 1144 1158 1115 1027 1119 1237 1494 1339
0 0 0 0 0 0 0 0 0 0 0 0 0 0 0 0 0 0 0 0 0 0 0 0 0 0 0 0 0 0 0 0 0 0 0 0 0 0 0 0 256 352 297 248 382 16 397 232 328 15 96 208 224 154 312 563 504 785 776 944 1023 975 7 0 0 0 0 706 34 39 914 947 1022 1089 1261 1211 1324 1320 1199 1249 1168 1189 1137 1084 1025 1266 1450 1468
0 0 0 0 0 0 0 0 0 0 0 0 0 0 0 0 0 0 0 0 0 0 0 0 0 0 0 0 0 0 0 0 0 0 0 0 0 0 0 0 870 1132 1172 1000 306 579 326 113 256 991 482 339 415 633 438 428 1114 1088 874 1044 1117 905 176 172 1 40 0 611 575 911 1261 987 966 1055 1168 1216 1189 1205 1290 1240 1209 1196 1146 1036 1037 986 980 901
0 0 0 0 0 0 0 0 0 0 0 0 0 0 0 0 0 0 0 0 0 0 0 0 0 0 0 0 0 0 0 0 0 0 0 0 0 0 0 0 153 578 658 208 212 432 616 707 621 865 874 782 792 928 867 813 1128 960 1115 1166 1169 1004 762 204 1 82 728 417 539 942 1196 975 967 996 1116 1067 1204 1104 1190 1198 1171 1093 1011 941 893 896 878 840
0 0 0 0 0 0 0 0 0 0 0 0 0 0 0 0 0 0 0 0 0 0 0 0 0 0 0 0 0 0 4 0 0 0 0 0 0 0 0 0 0 0 401 0 0 345 563 644 622 789 970 1087 1077 1058 1016 926 894 995 1136 1235 1230 1228 1079 882 657 465 811 518 473 1176 1108 1078 1041 1019 1144 1176 1040 1106 1028 1204 1203 1004 927 860 855 902 854 788
0 0 0 0 0 0 0 0 2 0 0 0 0 41 0 0 0 0 0 0 0 0 0 0 0 0 0 0 0 0 17 0 0 0 0 0 0 0 0 0 0 0 0 0 0 29 317 397 632 804 909 1045 984 953 824 836 730 846 998 1207 1211 1230 1189 1184 1201 1233 1229 1398 1277 1132 1059 1106 1043 1074 1096 1055 1034 881 929 1064 1091 1048 905 726 703 735 706 657
0 0 0 0 0 0 0 0 0 0 0 22 14 0 0 0 0 0 0 0 0 0 0 0 0 0 0 0 0 1 0 5 7 0 0 0 0 0 0 0 0 0 0 0 0 0 82 280 708 775 931 846 695 527 517 575 869 791 852 979 1222 1212 1135 1034 1020 1067 1077 1069 1090 1066 1076 1008 983 952 1101 911 697 770 1005 1148 1105 980 1029 1075 1004 856 724 772
0 0 0 0 0 0 87 0 0 0 0 0 0 0 0 0 0 0 0 0 0 0 0 0 0 0 0 0 0 0 0 0 0 0 0 0 0 0 0 0 0 0 0 0 0 0 47 26 160 285 650 580 316 379 311 63 428 582 728 746 939 1225 1322 1110 1072 864 982 1121 1038 1155 1111 1005 1060 1113 1037 770 761 760 789 761 749 775 859 996 992 1049 986 945
0 0 0 0 0 0 0 0 0 0 0 0 0 0 0 0 0 0 0 0 0 0 0 0 0 0 0 0 0 0 0 0 0 0 0 0 0 0 0 0 0 0 0 0 0 0 137 200 120 38 106 376 272 207 145 147 44 74 665 715 634 1022 1074 1135 1095 1007 1033 988 1203 1188 1243 1031 1081 1098 975 789 785 620 582 596 638 655 788 796 898 930 982 933
Wind_Speed
nan nan nan nan nan nan nan nan nan nan nan nan nan nan nan nan nan nan nan nan nan nan nan nan nan nan nan nan nan nan nan nan nan nan nan nan nan nan nan nan nan nan nan nan nan nan nan 10 8 7 nan nan nan nan 4 5 6 8 8 8 15 11 11 9 6 3 3 8 5 2 2 5 5 4 5 5 6 5 3 5 6 4 2 6 10 7 6 7
nan nan nan nan nan nan nan nan nan nan nan nan nan nan nan nan nan nan nan nan nan nan nan nan nan nan nan nan nan nan nan nan nan nan nan nan nan nan nan nan nan nan nan nan nan nan nan 10 9 10 nan nan nan 4 4 3 6 5 8 8 12 12 8 9 3 1 8 10 7 3 1 3 3 7 2 4 2 1 2 1 1 3 3 7 9 7 7 8
nan nan nan nan nan nan nan nan nan nan nan nan nan nan nan nan nan nan nan nan nan nan nan nan nan nan nan nan nan nan nan nan nan nan nan nan nan nan nan 16 nan nan nan nan nan nan 12 12 12 11 8 nan nan 5 3 4 4 4 5 6 7 7 8 9 5 1 2 11 8 6 2 3 2 1 nan 2 2 5 6 8 5 4 6 9 8 7 7 8
nan nan nan nan nan nan nan nan nan nan nan nan nan nan nan nan nan nan nan nan nan nan nan nan nan nan nan nan nan nan nan nan nan nan nan nan nan nan nan nan nan nan nan nan nan nan nan 14 12 8 9 nan nan 6 nan 6 4 4 6 6 5 7 10 11 7 1 4 6 8 6 5 5 3 1 2 5 2 7 8 7 8 11 11 11 8 7 7 8
nan nan nan nan nan nan nan nan nan nan nan nan nan nan nan nan nan nan nan nan nan nan nan nan nan nan nan nan nan nan nan nan nan nan nan 20 nan nan nan nan nan nan nan nan nan nan nan 14 13 10 7 5 nan 7 nan 8 5 6 5 5 6 7 10 7 6 1 4 7 8 8 8 2 5 2 4 9 4 8 12 9 6 10 13 13 9 6 7 8
nan nan nan nan nan nan nan nan nan nan nan nan nan nan nan nan nan nan nan nan nan nan nan nan nan nan nan nan nan nan nan nan nan nan 24 nan nan nan nan 21 nan nan nan nan nan nan nan 13 12 nan 7 nan nan nan 10 7 9 5 8 7 7 8 7 6 7 5 7 9 8 7 8 5 3 2 3 5 9 10 5 3 3 7 11 10 6 4 7 8
nan nan nan nan nan nan nan nan nan nan nan nan nan nan nan nan nan nan nan nan nan nan nan nan nan nan nan nan nan nan nan nan nan nan 25 nan nan nan 23 nan nan nan nan nan nan nan nan nan nan nan nan nan nan nan 9 8 8 5 6 10 9 9 11 9 8 5 8 9 11 13 7 5 4 2 5 nan nan 7 0 1 4 6 8 9 6 4 6 9
nan nan nan nan nan nan nan nan nan nan nan nan nan nan nan nan nan nan nan nan nan nan nan nan nan nan nan nan nan nan nan nan nan 24 27 nan nan 27 nan nan nan nan nan nan nan nan nan nan nan nan nan nan nan nan 11 9 9 7 7 9 8 8 10 11 9 9 13 14 15 11 7 12 8 6 nan nan 7 1 4 4 6 5 7 8 5 2 5 8
nan nan nan nan nan nan nan nan nan nan nan nan nan nan nan nan nan nan nan nan nan nan nan nan nan nan nan nan nan nan nan nan nan nan nan nan nan nan nan nan nan nan nan nan nan nan nan nan nan nan nan nan nan nan 11 8 7 7 6 10 8 8 10 14 13 12 14 13 16 14 14 13 11 nan 6 nan 4 1 5 6 7 6 7 8 5 2 4 8
nan nan nan nan nan nan nan nan nan nan nan nan nan nan nan nan nan nan nan nan nan nan nan nan nan nan nan nan nan nan nan nan nan nan nan nan nan nan nan nan nan nan nan nan nan nan nan nan nan nan nan nan nan 13 12 7 11 11 11 11 7 7 12 16 17 14 13 16 18 12 11 12 9 10 nan 9 3 2 4 5 7 7 7 7 5 3 4 7
nan nan nan nan nan nan nan nan nan nan nan nan nan nan nan nan nan nan nan nan nan nan nan nan nan nan nan nan nan nan nan nan nan nan nan nan nan nan nan nan nan nan nan nan nan nan nan nan nan nan nan nan 16 17 11 14 15 15 15 16 14 12 10 15 15 10 10 17 22 15 14 13 12 14 12 4 3 1 4 4 6 6 6 6 6 4 4 7
nan nan nan nan nan nan nan nan nan nan nan nan nan nan nan nan nan nan nan nan nan nan nan nan nan nan nan nan nan nan nan nan nan nan nan nan nan nan nan nan nan nan nan nan nan nan nan nan nan nan nan 18 15 17 16 15 16 17 13 13 14 13 10 10 14 6 8 16 21 19 12 12 11 10 nan 2 2 0 2 4 5 5 4 5 6 4 4 6
nan nan nan nan nan nan nan nan nan nan nan nan nan nan nan nan nan nan nan nan nan nan nan nan nan nan nan nan nan nan nan nan nan nan nan nan nan nan nan nan nan nan nan nan nan nan nan nan nan nan nan 16 19 16 18 15 16 14 13 14 15 13 7 5 6 3 5 13 22 21 9 10 10 13 nan 4 1 2 3 1 3 4 2 4 6 5 4 5
nan nan nan nan nan nan nan nan nan nan nan nan nan nan nan nan nan nan nan nan nan nan nan nan nan nan nan nan nan nan nan nan nan nan nan nan nan nan nan nan nan nan nan nan nan nan nan nan nan nan nan 16 19 19 20 18 13 15 14 9 10 11 7 4 5 4 5 10 22 23 14 12 13 13 7 4 1 4 1 1 2 4 3 2 6 6 5 5
nan nan nan nan nan nan nan nan nan nan nan nan nan nan nan nan nan nan nan nan nan nan nan nan nan nan nan nan nan nan nan nan nan nan nan nan nan nan nan nan nan nan nan nan nan nan nan nan nan nan 19 19 22 19 19 17 17 16 10 10 9 7 7 6 7 5 6 9 21 23 19 14 15 12 6 4 3 1 2 1 1 3 3 1 5 6 6 6
nan nan nan nan nan nan nan nan nan nan nan nan nan nan nan nan nan nan nan nan nan nan nan nan nan nan nan nan nan nan nan nan nan nan nan nan nan nan nan nan nan nan nan nan nan nan nan nan nan 19 22 19 17 17 18 18 17 16 12 10 9 8 7 8 3 1 3 12 21 24 18 13 13 10 6 5 3 2 3 1 2 2 4 1 4 7 7 6
nan nan nan nan nan nan nan nan nan nan nan nan nan nan nan nan nan nan nan nan nan nan nan nan nan nan nan nan nan nan nan nan nan nan nan nan nan nan nan nan nan nan nan nan nan nan nan nan 21 18 18 15 14 15 16 19 16 15 14 11 8 8 8 6 6 4 7 7 16 22 16 14 14 6 5 5 3 2 3 2 1 1 2 2 3 7 7 7
nan nan nan nan nan nan nan nan nan nan nan nan nan nan nan nan nan nan nan nan nan nan nan nan nan nan nan nan nan nan nan nan nan nan nan nan nan nan nan nan nan nan nan nan nan nan nan nan 18 17 16 14 14 15 14 20 18 13 13 11 10 10 5 7 8 6 8 7 17 22 18 15 11 nan nan 4 3 1 1 2 1 1 2 2 2 6 8 7
nan nan nan nan nan nan nan nan nan nan nan nan nan nan nan nan nan nan nan nan nan nan nan nan nan nan nan nan nan nan nan nan nan nan nan nan nan nan nan nan nan nan nan nan nan nan nan 24 18 17 13 14 15 17 16 18 14 12 13 12 10 9 6 6 5 5 5 7 16 21 18 14 9 nan nan nan 3 1 1 3 3 1 2 3 2 4 8 8
nan nan nan nan nan nan nan nan nan nan nan nan nan nan nan nan nan nan nan nan nan nan nan nan nan nan nan nan nan nan nan nan nan nan nan nan nan nan nan nan nan nan nan nan nan nan nan 20 16 15 16 17 21 21 21 21 19 20 17 15 12 12 11 10 5 4 5 5 14 20 21 13 6 nan nan nan 2 2 2 1 2 1 3 3 1 2 7 9
nan nan nan nan nan nan nan nan nan nan nan nan nan nan nan nan nan nan nan nan nan nan nan nan nan nan nan nan nan nan nan nan nan nan nan nan nan nan nan nan nan nan nan nan nan nan nan nan 18 19 22 24 20 21 23 23 19 17 17 14 13 11 11 10 7 4 7 7 9 17 20 14 7 nan nan nan nan 3 2 2 3 1 2 3 1 nan 5 9
nan nan nan nan nan nan nan nan nan nan nan nan nan nan nan nan nan nan nan nan nan nan nan nan nan nan nan nan nan nan nan nan nan nan nan nan nan nan nan nan nan nan nan nan nan nan nan nan nan nan 28 26 17 18 25 24 19 17 16 15 13 13 14 12 10 5 7 7 9 13 14 12 9 6 6 nan nan nan nan nan 5 2 0 2 nan nan 4 nan
nan nan nan nan nan nan nan nan nan nan nan nan nan nan nan nan nan nan nan nan nan nan nan nan nan nan nan nan nan nan nan nan nan nan nan nan nan nan nan nan nan nan nan nan nan nan nan nan nan nan nan 24 19 18 24 22 18 16 17 14 12 12 9 8 11 6 10 9 7 6 8 9 7 9 6 6 4 5 6 nan nan nan 3 1 nan nan nan nan
nan nan nan nan nan nan nan nan nan nan nan nan nan nan nan nan nan nan nan nan nan nan nan nan nan nan nan nan nan nan nan nan nan nan nan nan nan nan nan nan nan nan nan nan nan nan nan nan nan nan nan nan 21 20 19 19 16 17 15 15 15 10 10 13 9 9 9 10 7 4 6 6 3 2 6 9 12 10 6 6 9 nan nan nan nan nan nan nan
nan nan nan nan nan nan nan nan nan nan nan nan nan nan nan nan nan nan nan nan nan nan nan nan nan nan nan nan nan nan nan nan nan nan nan nan nan nan nan nan nan nan nan nan nan nan nan nan nan nan nan nan nan 22 20 19 nan 20 16 13 12 8 11 16 15 10 7 7 5 3 6 7 4 8 3 8 12 8 8 4 5 6 nan nan nan nan nan nan
nan nan nan nan nan nan nan nan nan nan nan nan nan nan nan nan nan nan nan nan nan nan nan nan nan nan nan nan nan nan nan nan nan nan nan nan nan nan nan nan nan nan nan nan nan nan nan nan nan nan nan nan nan 23 22 nan nan nan nan nan 10 9 12 15 13 9 7 9 6 6 8 7 4 7 7 2 1 3 9 5 5 5 6 7 nan nan nan nan
nan nan nan nan nan nan nan nan nan nan nan nan nan nan nan nan nan nan nan nan nan nan nan nan nan nan nan nan nan nan nan nan nan nan nan nan nan nan nan nan nan nan nan nan nan nan nan nan nan nan nan nan nan nan nan nan nan nan nan nan 17 14 16 14 12 11 15 14 11 7 6 8 9 3 4 6 5 2 2 3 3 3 4 6 7 nan nan nan
nan nan nan nan nan nan nan nan nan nan nan nan nan nan nan nan nan nan nan nan nan nan nan nan nan nan nan nan nan nan nan nan nan nan nan nan nan nan nan nan nan nan nan nan nan nan nan nan nan nan nan nan nan nan nan nan nan nan 20 22 21 19 18 15 13 13 14 11 9 5 4 6 7 4 2 7 6 7 nan 2 4 3 3 5 6 nan nan nan
nan nan nan nan nan nan nan nan nan nan nan nan nan nan nan nan nan nan nan nan nan nan nan nan nan nan nan nan nan nan nan nan nan nan nan nan nan nan nan nan nan nan nan nan nan nan nan nan nan nan nan nan nan nan nan nan nan 29 29 28 27 25 20 17 15 15 14 12 10 5 2 5 10 4 4 3 5 8 10 7 3 4 5 7 8 8 nan nan
nan nan nan nan nan nan nan nan nan nan nan nan nan nan nan nan nan nan nan nan nan nan nan nan nan nan nan nan nan nan nan nan nan nan nan nan nan nan nan nan nan nan nan nan nan nan nan nan nan nan nan nan nan nan nan 33 nan 27 29 26 25 25 21 20 20 16 17 11 11 3 2 3 10 6 1 6 5 7 5 3 6 8 10 11 11 9 nan nan
nan nan nan nan nan nan nan nan nan nan nan nan nan nan nan nan nan nan nan nan nan nan nan nan nan nan nan nan nan nan nan nan nan nan nan nan nan nan nan nan nan nan nan nan nan nan nan nan nan nan nan nan nan nan nan nan 25 25 26 24 25 26 20 17 16 15 11 9 13 7 1 2 4 8 6 1 6 6 3 3 12 12 11 12 11 9 8 nan
nan nan nan nan nan nan nan nan nan nan nan nan nan nan nan nan nan nan nan nan nan nan nan nan nan nan nan nan nan nan nan nan nan nan nan nan nan nan nan nan nan nan nan nan nan nan nan nan nan nan nan nan nan nan 39 34 31 24 23 21 21 24 18 14 12 8 5 9 13 9 3 4 6 8 14 11 nan nan 6 4 11 11 11 13 10 7 8 nan
nan nan nan nan nan nan nan nan nan nan nan nan nan nan nan nan nan nan nan nan nan nan nan nan nan nan nan nan nan nan nan nan nan nan nan nan nan nan nan nan nan nan nan nan nan nan nan nan nan nan nan 34 35 37 36 31 27 24 20 22 nan 20 17 14 10 13 11 9 9 8 6 6 8 9 14 16 17 14 9 6 15 9 9 12 9 8 10 10
nan nan nan nan nan nan nan nan nan nan nan nan nan nan nan nan nan 11 nan nan nan nan nan nan nan nan nan nan nan nan nan nan nan nan nan nan nan nan nan nan nan nan nan nan nan nan nan nan nan nan nan nan 29 31 28 29 23 23 25 20 nan nan 18 14 12 10 12 13 11 8 7 8 4 9 11 14 14 14 10 5 nan 10 5 9 9 12 12 12
nan nan nan nan nan nan nan nan nan nan nan nan nan nan nan nan nan nan nan nan nan nan nan nan nan nan nan nan nan nan nan nan nan nan nan nan nan nan nan nan nan nan nan nan nan nan nan nan nan nan nan nan 27 36 31 36 38 35 36 37 27 nan 23 21 20 18 18 17 14 8 7 12 9 7 7 10 12 13 15 12 nan nan 3 3 8 12 15 16
nan nan nan nan nan nan nan nan nan nan nan nan nan nan nan nan nan nan nan nan nan nan nan nan nan nan nan nan nan nan nan nan nan nan nan nan nan nan nan nan nan nan nan nan nan nan nan nan nan nan nan nan nan 31 31 32 31 32 36 27 25 28 23 25 25 26 22 18 14 11 9 9 8 5 7 14 13 15 14 15 8 2 nan 8 7 12 17 20
nan nan nan nan nan nan nan nan nan nan nan nan nan nan nan nan nan nan nan nan nan nan nan nan nan nan nan nan nan nan nan nan nan nan nan nan nan nan nan nan nan nan nan nan nan nan nan nan nan nan nan nan nan 26 29 36 38 38 29 19 29 26 28 24 23 23 20 16 18 14 11 14 14 12 14 17 17 16 16 15 13 4 6 11 12 14 16 20
nan nan nan nan nan nan nan nan nan nan nan nan nan nan nan nan nan nan nan nan nan nan nan nan nan nan nan nan nan nan nan nan nan nan nan nan nan nan nan nan nan nan nan nan nan nan nan nan nan nan nan nan nan 28 32 35 31 27 29 26 22 26 21 nan 24 22 19 16 17 16 16 17 17 14 20 19 18 18 17 15 10 6 6 10 13 19 18 22
nan nan nan nan nan nan nan nan nan nan nan nan nan nan nan nan nan nan nan nan nan nan nan nan nan nan nan nan nan nan nan nan nan nan nan nan nan nan nan nan nan nan nan nan nan nan nan nan nan nan nan 23 23 24 26 29 32 36 33 27 nan nan 25 22 24 22 19 17 18 19 17 20 18 16 17 16 16 16 16 15 11 7 5 7 10 18 20 15
nan nan nan nan nan nan nan nan nan nan nan nan nan nan nan nan nan nan nan nan nan nan nan nan nan nan nan nan nan nan nan nan nan nan nan nan nan nan nan nan nan nan nan nan nan nan nan nan 24 nan nan nan 21 23 23 25 27 30 28 25 23 nan nan nan nan 22 20 19 17 nan nan 21 19 17 16 14 15 17 17 17 13 9 6 3 3 8 12 6
nan nan nan nan nan nan nan nan nan nan nan nan nan nan nan nan nan nan nan nan nan nan nan nan nan nan nan nan nan nan nan nan nan nan nan nan nan nan nan nan nan nan nan nan nan nan 18 nan nan nan nan nan nan nan 28 29 34 nan nan nan 22 20 nan nan nan nan nan nan nan nan nan 23 21 18 17 16 19 18 18 19 16 13 10 8 7 6 7 6
nan nan nan nan nan nan nan nan nan nan nan nan nan nan nan nan nan nan nan nan nan nan nan nan nan nan nan nan nan nan nan nan nan nan nan nan nan nan nan nan nan nan nan nan nan nan nan nan 24 nan nan nan nan nan 23 27 32 37 35 32 nan 25 nan nan nan nan nan nan nan 25 23 22 18 17 19 19 18 19 20 21 21 21 19 16 14 13 12 11
nan nan nan nan nan nan nan nan nan nan nan nan nan nan nan nan nan nan nan nan nan nan nan nan nan nan nan nan nan nan nan nan nan nan nan nan nan nan nan nan nan nan nan nan nan nan 19 24 25 26 25 nan 28 30 nan nan nan 28 34 35 29 25 26 nan nan nan nan 26 nan 24 nan 24 19 20 21 21 21 22 22 23 24 22 21 21 20 20 19 18
nan nan nan nan nan nan nan nan nan nan nan nan nan nan nan nan nan nan nan nan nan nan nan nan nan nan nan nan nan nan nan nan nan nan nan nan nan nan nan nan nan nan nan nan nan 24 22 22 22 nan 25 nan 28 28 28 26 31 33 31 33 30 27 24 24 nan nan nan nan 28 nan nan 23 19 20 23 24 24 25 25 26 25 23 20 16 16 17 17 19
nan nan nan nan nan nan nan nan nan nan nan nan nan nan nan nan nan nan nan nan nan nan nan nan nan nan nan nan nan nan nan nan nan nan nan nan nan nan nan nan 14 17 17 23 27 nan 26 25 21 nan nan 23 24 28 32 30 31 29 32 35 32 29 nan nan nan nan nan 28 nan nan 27 24 19 22 26 28 26 27 26 25 24 21 17 14 13 14 16 18
nan nan nan nan nan nan nan nan nan nan nan nan nan nan nan nan nan nan nan nan nan nan nan nan nan nan nan nan nan nan nan nan nan nan nan nan nan nan nan nan 20 21 25 27 25 25 29 27 24 22 25 28 30 30 33 28 28 30 34 37 38 34 29 30 nan nan nan 28 26 28 26 23 19 22 26 30 29 29 26 25 21 19 17 17 18 18 20 21
nan nan nan nan nan nan nan nan nan nan nan nan nan nan nan nan nan nan nan nan nan nan nan nan nan nan nan nan nan nan nan nan nan nan nan nan nan nan nan nan 18 23 20 21 23 24 27 30 32 31 31 29 29 29 30 30 32 31 33 35 38 39 32 30 nan nan 37 33 27 25 23 22 21 22 26 29 29 30 27 23 21 20 19 18 19 22 23 22
nan nan nan nan nan nan nan nan nan nan nan nan nan nan nan nan nan nan nan nan nan nan nan nan nan nan nan nan nan nan nan nan nan nan nan nan nan nan nan nan nan nan 17 nan nan 21 22 25 26 31 34 30 30 33 33 35 36 35 35 36 38 38 40 37 34 33 33 31 28 26 23 24 25 25 27 29 33 33 31 26 24 25 22 20 20 21 22 22
nan nan nan nan nan nan nan nan nan nan nan nan nan nan nan nan nan nan nan nan nan nan nan nan nan nan nan nan nan nan nan nan nan nan nan nan nan nan nan nan nan nan nan nan nan nan 19 22 23 30 34 33 33 35 33 35 35 38 39 39 38 38 39 39 40 37 34 34 35 33 27 28 26 26 28 32 33 33 32 29 30 30 28 25 24 24 24 23
nan nan nan nan nan nan nan nan nan nan nan nan nan nan nan nan nan nan nan nan nan nan nan nan nan nan nan nan nan nan nan nan nan nan nan nan nan nan nan nan nan nan nan nan nan nan nan 18 20 24 32 35 37 38 37 33 34 41 39 38 38 38 39 38 39 40 40 40 39 36 34 31 27 26 28 34 33 32 32 32 32 32 32 31 28 27 26 25
nan nan nan nan nan nan nan nan nan nan nan nan nan nan nan nan nan nan nan nan nan nan nan nan nan nan nan nan nan nan nan nan nan nan nan nan nan nan nan nan nan nan nan nan nan nan nan nan 21 22 25 28 30 35 36 nan 37 41 41 41 38 34 36 35 35 34 33 36 36 37 36 33 28 27 33 35 35 33 30 29 30 30 31 32 29 27 27 27
nan nan nan nan nan nan nan nan nan nan nan nan nan nan nan nan nan nan nan nan nan nan nan nan nan nan nan nan nan nan nan nan nan nan nan nan nan nan nan nan nan nan nan nan nan nan 19 19 17 nan 18 21 29 30 33 32 nan nan 39 40 38 38 38 37 35 34 36 35 32 32 37 37 33 32 35 36 35 34 32 28 26 29 32 31 29 28 28 27
Wind_Direction
nan nan nan nan nan nan nan nan nan nan nan nan nan nan nan nan nan nan nan nan nan nan nan nan nan nan nan nan nan nan nan nan nan nan nan nan nan nan nan nan nan nan nan nan nan nan nan 293 317 298 nan nan nan nan 338 21 45 37 19 35 31 25 16 3 352 5 327 344 329 28 143 265 248 208 192 202 193 175 188 175 145 163 242 320 322 330 7 24
nan nan nan nan nan nan nan nan nan nan nan nan nan nan nan nan nan nan nan nan nan nan nan nan nan nan nan nan nan nan nan nan nan nan nan nan nan nan nan nan nan nan nan nan nan nan nan 302 308 308 nan nan nan 296 340 338 42 15 359 35 30 27 350 5 353 234 344 345 336 256 333 315 290 299 93 150 116 36 287 249 160 207 287 320 324 342 14 28
nan nan nan nan nan nan nan nan nan nan nan nan nan nan nan nan nan nan nan nan nan nan nan nan nan nan nan nan nan nan nan nan nan nan nan nan nan nan nan 237 nan nan nan nan nan nan 296 306 300 300 293 nan nan 273 303 310 29 350 16 359 30 38 353 352 14 263 251 313 313 284 156 205 290 207 nan 130 62 61 7 339 346 3 351 349 347 6 26 35
nan nan nan nan nan nan nan nan nan nan nan nan nan nan nan nan nan nan nan nan nan nan nan nan nan nan nan nan nan nan nan nan nan nan nan nan nan nan nan nan nan nan nan nan nan nan nan 272 281 281 275 nan nan 275 nan 308 1 326 0 340 2 24 7 352 356 296 254 311 303 271 238 238 138 151 352 313 312 85 70 19 12 5 356 357 3 18 42 43
nan nan nan nan nan nan nan nan nan nan nan nan nan nan nan nan nan nan nan nan nan nan nan nan nan nan nan nan nan nan nan nan nan nan nan 245 nan nan nan nan nan nan nan nan nan nan nan 275 274 257 261 274 nan 279 nan 305 302 324 323 327 2 10 354 334 344 328 271 272 278 260 285 252 178 137 4 357 47 78 62 38 54 6 352 353 1 30 56 55
nan nan nan nan nan nan nan nan nan nan nan nan nan nan nan nan nan nan nan nan nan nan nan nan nan nan nan nan nan nan nan nan nan nan 228 nan nan nan nan 242 nan nan nan nan nan nan nan 253 271 nan 260 nan nan nan 275 301 317 326 323 334 352 3 341 313 322 292 288 274 258 271 235 224 146 163 93 132 145 139 113 56 26 4 352 352 352 26 60 67
nan nan nan nan nan nan nan nan nan nan nan nan nan nan nan nan nan nan nan nan nan nan nan nan nan nan nan nan nan nan nan nan nan nan 241 nan nan nan 255 nan nan nan nan nan nan nan nan nan nan nan nan nan nan nan 279 299 314 318 313 324 345 352 349 323 322 271 271 262 225 213 229 196 213 206 114 nan nan 142 282 316 329 344 351 347 344 36 64 74
nan nan nan nan nan nan nan nan nan nan nan nan nan nan nan nan nan nan nan nan nan nan nan nan nan nan nan nan nan nan nan nan nan 231 256 nan nan 263 nan nan nan nan nan nan nan nan nan nan nan nan nan nan nan nan 282 290 309 320 318 327 336 351 355 342 323 285 259 232 220 227 217 188 166 179 nan nan 153 245 278 289 310 336 356 4 356 16 81 88
nan nan nan nan nan nan nan nan nan nan nan nan nan nan nan nan nan nan nan nan nan nan nan nan nan nan nan nan nan nan nan nan nan nan nan nan nan nan nan nan nan nan nan nan nan nan nan nan nan nan nan nan nan nan 284 281 282 322 299 302 320 346 357 347 324 281 249 224 203 225 201 192 195 nan 172 nan 145 220 278 294 311 336 5 15 19 26 87 92
nan nan nan nan nan nan nan nan nan nan nan nan nan nan nan nan nan nan nan nan nan nan nan nan nan nan nan nan nan nan nan nan nan nan nan nan nan nan nan nan nan nan nan nan nan nan nan nan nan nan nan nan nan 242 271 260 250 279 281 269 282 341 344 335 329 274 226 216 194 216 206 199 181 153 nan 143 132 280 281 297 315 339 12 23 37 67 94 89
nan nan nan nan nan nan nan nan nan nan nan nan nan nan nan nan nan nan nan nan nan nan nan nan nan nan nan nan nan nan nan nan nan nan nan nan nan nan nan nan nan nan nan nan nan nan nan nan nan nan nan nan 242 246 248 246 264 271 280 280 272 266 305 321 303 277 205 202 185 206 206 206 189 164 165 153 124 336 285 306 319 339 20 35 37 65 106 113
nan nan nan nan nan nan nan nan nan nan nan nan nan nan nan nan nan nan nan nan nan nan nan nan nan nan nan nan nan nan nan nan nan nan nan nan nan nan nan nan nan nan nan nan nan nan nan nan nan nan nan 230 236 255 249 258 263 275 277 277 273 273 263 285 322 313 205 201 183 167 212 198 185 172 nan 216 156 220 270 313 322 334 15 41 47 75 113 120
nan nan nan nan nan nan nan nan nan nan nan nan nan nan nan nan nan nan nan nan nan nan nan nan nan nan nan nan nan nan nan nan nan nan nan nan nan nan nan nan nan nan nan nan nan nan nan nan nan nan nan 234 252 237 256 261 262 270 270 276 280 284 278 228 293 281 243 201 186 172 179 173 183 182 nan 204 241 267 235 325 326 317 359 61 58 76 98 121
nan nan nan nan nan nan nan nan nan nan nan nan nan nan nan nan nan nan nan nan nan nan nan nan nan nan nan nan nan nan nan nan nan nan nan nan nan nan nan nan nan nan nan nan nan nan nan nan nan nan nan 246 250 262 264 256 251 259 264 263 275 303 289 278 279 356 311 218 191 179 176 181 183 188 198 172 286 315 303 22 341 319 325 73 77 74 90 99
nan nan nan nan nan nan nan nan nan nan nan nan nan nan nan nan nan nan nan nan nan nan nan nan nan nan nan nan nan nan nan nan nan nan nan nan nan nan nan nan nan nan nan nan nan nan nan nan nan nan 242 248 265 265 254 251 253 254 257 254 272 288 292 250 281 345 311 230 201 186 185 174 177 189 190 176 172 247 268 18 24 323 312 54 95 84 87 106
nan nan nan nan nan nan nan nan nan nan nan nan nan nan nan nan nan nan nan nan nan nan nan nan nan nan nan nan nan nan nan nan nan nan nan nan nan nan nan nan nan nan nan nan nan nan nan nan nan 233 251 261 265 257 255 253 248 245 243 258 257 277 289 307 330 234 258 247 208 191 186 183 176 185 184 172 209 203 237 265 61 348 318 306 115 109 103 120
nan nan nan nan nan nan nan nan nan nan nan nan nan nan nan nan nan nan nan nan nan nan nan nan nan nan nan nan nan nan nan nan nan nan nan nan nan nan nan nan nan nan nan nan nan nan nan nan 228 238 238 251 260 262 252 243 244 247 247 258 255 285 308 322 293 231 268 255 219 194 190 179 183 199 182 174 197 215 220 234 78 31 271 263 151 115 111 115
nan nan nan nan nan nan nan nan nan nan nan nan nan nan nan nan nan nan nan nan nan nan nan nan nan nan nan nan nan nan nan nan nan nan nan nan nan nan nan nan nan nan nan nan nan nan nan nan 218 226 244 250 260 250 232 232 226 244 264 265 265 273 302 298 319 295 297 225 222 205 195 180 180 nan nan 149 170 190 232 227 63 23 288 261 182 126 108 108
nan nan nan nan nan nan nan nan nan nan nan nan nan nan nan nan nan nan nan nan nan nan nan nan nan nan nan nan nan nan nan nan nan nan nan nan nan nan nan nan nan nan nan nan nan nan nan 234 224 230 240 249 251 236 221 216 212 243 259 250 265 280 267 291 250 295 319 251 218 207 188 179 170 nan nan nan 161 115 237 211 167 106 269 265 218 134 119 112
nan nan nan nan nan nan nan nan nan nan nan nan nan nan nan nan nan nan nan nan nan nan nan nan nan nan nan nan nan nan nan nan nan nan nan nan nan nan nan nan nan nan nan nan nan nan nan 231 223 218 227 237 238 224 223 224 237 249 251 253 248 253 245 244 256 274 192 219 208 207 195 190 167 nan nan nan 132 159 202 232 149 167 262 271 242 139 121 113
nan nan nan nan nan nan nan nan nan nan nan nan nan nan nan nan nan nan nan nan nan nan nan nan nan nan nan nan nan nan nan nan nan nan nan nan nan nan nan nan nan nan nan nan nan nan nan nan 212 209 214 225 236 224 222 233 233 240 247 247 245 242 250 236 230 258 195 164 202 199 196 194 196 nan nan nan nan 95 154 143 111 111 266 260 326 nan 116 116
nan nan nan nan nan nan nan nan nan nan nan nan nan nan nan nan nan nan nan nan nan nan nan nan nan nan nan nan nan nan nan nan nan nan nan nan nan nan nan nan nan nan nan nan nan nan nan nan nan nan 221 230 223 215 216 222 229 226 228 235 234 234 241 230 228 226 191 169 179 182 180 192 209 220 213 nan nan nan nan nan 135 159 210 224 nan nan 134 nan
nan nan nan nan nan nan nan nan nan nan nan nan nan nan nan nan nan nan nan nan nan nan nan nan nan nan nan nan nan nan nan nan nan nan nan nan nan nan nan nan nan nan nan nan nan nan nan nan nan nan nan 231 225 216 219 217 213 215 226 228 217 237 242 229 209 227 199 170 155 159 155 181 213 234 226 204 197 183 184 nan nan nan 150 134 nan nan nan nan
nan nan nan nan nan nan nan nan nan nan nan nan nan nan nan nan nan nan nan nan nan nan nan nan nan nan nan nan nan nan nan nan nan nan nan nan nan nan nan nan nan nan nan nan nan nan nan nan nan nan nan nan 221 219 216 211 207 215 206 207 219 237 221 207 233 220 200 200 177 190 162 135 66 255 209 212 211 200 194 177 164 nan nan nan nan nan nan nan
nan nan nan nan nan nan nan nan nan nan nan nan nan nan nan nan nan nan nan nan nan nan nan nan nan nan nan nan nan nan nan nan nan nan nan nan nan nan nan nan nan nan nan nan nan nan nan nan nan nan nan nan nan 218 219 221 nan 202 202 194 202 226 238 243 254 240 197 165 166 134 157 137 50 50 104 219 219 209 209 177 129 153 nan nan nan nan nan nan
nan nan nan nan nan nan nan nan nan nan nan nan nan nan nan nan nan nan nan nan nan nan nan nan nan nan nan nan nan nan nan nan nan nan nan nan nan nan nan nan nan nan nan nan nan nan nan nan nan nan nan nan nan 210 220 nan nan nan nan nan 188 216 239 250 257 242 203 162 190 139 120 154 190 67 56 48 271 247 234 195 134 141 159 167 nan nan nan nan
nan nan nan nan nan nan nan nan nan nan nan nan nan nan nan nan nan nan nan nan nan nan nan nan nan nan nan nan nan nan nan nan nan nan nan nan nan nan nan nan nan nan nan nan nan nan nan nan nan nan nan nan nan nan nan nan nan nan nan nan 200 227 234 234 238 217 202 196 187 171 162 136 143 112 37 11 7 356 277 231 193 149 145 145 164 nan nan nan
nan nan nan nan nan nan nan nan nan nan nan nan nan nan nan nan nan nan nan nan nan nan nan nan nan nan nan nan nan nan nan nan nan nan nan nan nan nan nan nan nan nan nan nan nan nan nan nan nan nan nan nan nan nan nan nan nan nan 192 201 217 228 234 234 224 220 214 197 188 192 208 158 119 188 217 344 12 32 nan 300 238 177 169 175 173 nan nan nan
nan nan nan nan nan nan nan nan nan nan nan nan nan nan nan nan nan nan nan nan nan nan nan nan nan nan nan nan nan nan nan nan nan nan nan nan nan nan nan nan nan nan nan nan nan nan nan nan nan nan nan nan nan nan nan nan nan 219 225 219 222 229 224 220 217 210 207 196 181 203 238 148 130 168 230 342 34 41 43 25 297 218 197 203 192 179 nan nan
nan nan nan nan nan nan nan nan nan nan nan nan nan nan nan nan nan nan nan nan nan nan nan nan nan nan nan nan nan nan nan nan nan nan nan nan nan nan nan nan nan nan nan nan nan nan nan nan nan nan nan nan nan nan nan 242 nan 219 229 225 223 224 220 210 207 212 211 182 161 212 337 147 165 169 252 302 43 44 32 304 276 249 217 206 200 192 nan nan
nan nan nan nan nan nan nan nan nan nan nan nan nan nan nan nan nan nan nan nan nan nan nan nan nan nan nan nan nan nan nan nan nan nan nan nan nan nan nan nan nan nan nan nan nan nan nan nan nan nan nan nan nan nan nan nan 244 231 209 220 224 222 214 213 212 207 214 201 205 192 289 60 165 188 200 101 195 192 184 335 324 292 243 216 211 204 193 nan
nan nan nan nan nan nan nan nan nan nan nan nan nan nan nan nan nan nan nan nan nan nan nan nan nan nan nan nan nan nan nan nan nan nan nan nan nan nan nan nan nan nan nan nan nan nan nan nan nan nan nan nan nan nan 222 231 229 215 216 216 210 217 214 212 211 207 220 212 220 211 244 216 100 162 199 183 nan nan 122 44 346 308 226 207 212 217 217 nan
nan nan nan nan nan nan nan nan nan nan nan nan nan nan nan nan nan nan nan nan nan nan nan nan nan nan nan nan nan nan nan nan nan nan nan nan nan nan nan nan nan nan nan nan nan nan nan nan nan nan nan 215 230 227 226 224 229 227 217 210 nan 219 219 210 209 202 201 220 226 209 245 157 178 184 202 199 192 183 166 46 5 334 191 186 206 220 225 227
nan nan nan nan nan nan nan nan nan nan nan nan nan nan nan nan nan 333 nan nan nan nan nan nan nan nan nan nan nan nan nan nan nan nan nan nan nan nan nan nan nan nan nan nan nan nan nan nan nan nan nan nan 220 230 236 230 238 234 224 209 nan nan 217 211 215 204 208 221 229 250 224 196 189 237 222 207 202 204 204 177 nan 6 130 179 223 235 241 241
nan nan nan nan nan nan nan nan nan nan nan nan nan nan nan nan nan nan nan nan nan nan nan nan nan nan nan nan nan nan nan nan nan nan nan nan nan nan nan nan nan nan nan nan nan nan nan nan nan nan nan nan 231 221 226 228 225 215 213 199 196 nan 204 200 212 213 224 235 238 244 193 210 201 232 224 204 205 210 202 205 nan nan 2 268 250 253 253 251
nan nan nan nan nan nan nan nan nan nan nan nan nan nan nan nan nan nan nan nan nan nan nan nan nan nan nan nan nan nan nan nan nan nan nan nan nan nan nan nan nan nan nan nan nan nan nan nan nan nan nan nan nan 240 225 236 222 221 222 200 189 198 205 219 222 219 227 230 236 241 204 213 200 254 223 207 209 212 205 200 195 352 nan 321 301 271 261 254
nan nan nan nan nan nan nan nan nan nan nan nan nan nan nan nan nan nan nan nan nan nan nan nan nan nan nan nan nan nan nan nan nan nan nan nan nan nan nan nan nan nan nan nan nan nan nan nan nan nan nan nan nan 225 237 213 226 231 224 208 204 201 202 208 218 225 223 223 237 244 228 229 225 257 237 221 210 210 209 204 203 220 318 325 313 296 276 251
nan nan nan nan nan nan nan nan nan nan nan nan nan nan nan nan nan nan nan nan nan nan nan nan nan nan nan nan nan nan nan nan nan nan nan nan nan nan nan nan nan nan nan nan nan nan nan nan nan nan nan nan nan 248 236 219 214 226 228 230 209 205 209 nan 221 229 230 226 228 240 239 239 243 245 235 221 211 203 205 207 210 252 317 334 324 320 291 239
nan nan nan nan nan nan nan nan nan nan nan nan nan nan nan nan nan nan nan nan nan nan nan nan nan nan nan nan nan nan nan nan nan nan nan nan nan nan nan nan nan nan nan nan nan nan nan nan nan nan nan 218 238 244 241 231 223 223 230 234 nan nan 208 212 212 217 225 224 226 240 241 245 253 245 238 227 214 208 204 208 220 226 295 333 329 327 309 241
nan nan nan nan nan nan nan nan nan nan nan nan nan nan nan nan nan nan nan nan nan nan nan nan nan nan nan nan nan nan nan nan nan nan nan nan nan nan nan nan nan nan nan nan nan nan nan nan 209 nan nan nan 239 220 232 234 237 230 224 227 225 nan nan nan nan 213 216 223 226 nan nan 245 248 241 239 229 217 217 210 204 212 222 234 282 305 317 321 286
nan nan nan nan nan nan nan nan nan nan nan nan nan nan nan nan nan nan nan nan nan nan nan nan nan nan nan nan nan nan nan nan nan nan nan nan nan nan nan nan nan nan nan nan nan nan 215 nan nan nan nan nan nan nan 223 217 221 nan nan nan 221 224 nan nan nan nan nan nan nan nan nan 239 240 237 229 221 221 218 212 208 214 223 230 236 224 226 246 253
nan nan nan nan nan nan nan nan nan nan nan nan nan nan nan nan nan nan nan nan nan nan nan nan nan nan nan nan nan nan nan nan nan nan nan nan nan nan nan nan nan nan nan nan nan nan nan nan 212 nan nan nan nan nan 222 226 229 228 221 220 nan 226 nan nan nan nan nan nan nan 229 232 240 234 227 220 220 217 216 214 214 217 220 225 234 226 216 222 226
nan nan nan nan nan nan nan nan nan nan nan nan nan nan nan nan nan nan nan nan nan nan nan nan nan nan nan nan nan nan nan nan nan nan nan nan nan nan nan nan nan nan nan nan nan nan 223 223 219 214 208 nan 220 227 nan nan nan 225 225 219 219 225 227 nan nan nan nan 235 nan 239 nan 241 231 223 217 220 220 220 223 223 223 227 227 229 226 221 223 228
nan nan nan nan nan nan nan nan nan nan nan nan nan nan nan nan nan nan nan nan nan nan nan nan nan nan nan nan nan nan nan nan nan nan nan nan nan nan nan nan nan nan nan nan nan 238 225 227 220 nan 216 nan 224 230 235 237 230 224 220 218 215 223 233 232 nan nan nan nan 224 nan nan 245 229 214 221 221 223 225 224 228 229 232 234 240 240 234 231 234
nan nan nan nan nan nan nan nan nan nan nan nan nan nan nan nan nan nan nan nan nan nan nan nan nan nan nan nan nan nan nan nan nan nan nan nan nan nan nan nan 231 245 242 239 239 nan 232 236 227 nan nan 222 225 224 225 223 220 220 227 217 223 224 nan nan nan nan nan 235 nan nan 242 241 229 218 221 223 224 232 229 230 235 236 240 244 249 249 245 244
nan nan nan nan nan nan nan nan nan nan nan nan nan nan nan nan nan nan nan nan nan nan nan nan nan nan nan nan nan nan nan nan nan nan nan nan nan nan nan nan 232 240 240 240 234 235 241 239 228 222 223 221 221 222 225 227 224 227 220 222 222 232 235 237 nan nan nan 243 239 236 244 255 245 230 225 226 226 231 226 228 232 239 242 243 242 238 238 239
nan nan nan nan nan nan nan nan nan nan nan nan nan nan nan nan nan nan nan nan nan nan nan nan nan nan nan nan nan nan nan nan nan nan nan nan nan nan nan nan 233 241 240 237 225 235 237 238 227 226 233 235 233 231 230 232 233 228 225 226 229 233 239 239 nan nan 234 248 235 245 261 259 250 241 236 233 231 234 230 227 232 238 238 236 237 236 241 246
nan nan nan nan nan nan nan nan nan nan nan nan nan nan nan nan nan nan nan nan nan nan nan nan nan nan nan nan nan nan nan nan nan nan nan nan nan nan nan nan nan nan 228 nan nan 233 237 239 230 227 234 232 238 240 238 236 233 232 230 229 232 235 239 241 239 240 231 234 236 261 265 261 254 249 241 240 237 236 233 233 237 243 247 246 242 242 242 244
nan nan nan nan nan nan nan nan nan nan nan nan nan nan nan nan nan nan nan nan nan nan nan nan nan nan nan nan nan nan nan nan nan nan nan nan nan nan nan nan nan nan nan nan nan nan 235 231 234 225 237 234 236 237 237 240 238 234 231 233 234 239 242 243 243 244 243 243 249 261 258 258 256 247 245 244 241 239 237 239 243 244 246 249 250 250 250 247
nan nan nan nan nan nan nan nan nan nan nan nan nan nan nan nan nan nan nan nan nan nan nan nan nan nan nan nan nan nan nan nan nan nan nan nan nan nan nan nan nan nan nan nan nan nan nan 238 237 228 234 232 233 234 232 232 235 236 234 235 237 242 245 245 246 243 248 252 255 257 257 254 246 241 245 248 246 243 239 238 240 242 242 245 248 251 252 250
nan nan nan nan nan nan nan nan nan nan nan nan nan nan nan nan nan nan nan nan nan nan nan nan nan nan nan nan nan nan nan nan nan nan nan nan nan nan nan nan nan nan nan nan nan nan nan nan 225 231 241 239 232 226 228 nan 233 237 235 232 232 235 242 243 245 243 246 254 255 257 255 252 250 247 252 250 249 246 242 238 238 239 241 244 247 249 251 253
nan nan nan nan nan nan nan nan nan nan nan nan nan nan nan nan nan nan nan nan nan nan nan nan nan nan nan nan nan nan nan nan nan nan nan nan nan nan nan nan nan nan nan nan nan nan 224 239 239 nan 240 241 239 229 228 231 nan nan 232 228 230 238 244 248 250 250 247 248 256 253 251 246 245 252 254 251 250 247 245 241 237 237 241 243 244 247 250 254